Tacoma, WA

9:27 PM PDT on May 28, 2017 (GMT -0700)
McChord Air Force Base

Weather History for KTCM - September, 2012

Change the Weather History Date:

Monday, September 3, 2012

  Actual Average Record
Temperature  
Mean Temperature 57 °F -  
Max Temperature 72 °F 71 °F 91 °F (1988)
Min Temperature 42 °F 48 °F 39 °F (1956)
Degree Days  
Heating Degree Days 8    
Growing Degree Days 7 (Base 50)    
Moisture  
Dew Point 47 °F    
Average Humidity 76    
Maximum Humidity 100    
Minimum Humidity 41    
Precipitation  
Precipitation 0.00 in - - ()
Sea Level Pressure  
Sea Level Pressure 30.17 in    
Wind  
Wind Speed 3 mph (ENE)    
Max Wind Speed 14 mph    
Max Gust Speed 21 mph    
Visibility 8 miles    
Events Fog    
Averages and records for this station are not official NWS values.
T = Trace of Precipitation, MM = Missing Value Source: NWS Daily Summary

Daily Weather History Graph

Daily Weather History Graph

Search for Another Location

Airport or City:

Trip Planner

Search our weather history database for the weather conditions in past years. The results will help you decide how hot, cold, wet, or windy it might be!

Date:

Astronomy

Sep. 03, 2012 Rise Set
Actual Time 6:32 AM PDT 7:44 PM PDT
Civil Twilight 6:01 AM PDT 8:15 PM PDT
Nautical Twilight 5:23 AM PDT 8:53 PM PDT
Astronomical Twilight 4:42 AM PDT 9:33 PM PDT
Moon 8:47 PM PDT (9/3) 10:03 AM PDT (9/3)
Length of Visible Light 14h 14m
Length of Day
13h 12m
Waning Gibbous, 90% of the Moon is Illuminated
Sep 3
Waning Gibbous
Sep 8
Last Quarter
Sep 15
New
Sep 22
First Quarter
Sep 29
Full

Hourly Weather History & Observations

Time (PDT) Temp. Dew Point Humidity Pressure Visibility Wind Dir Wind Speed Gust Speed Precip Events Conditions
12:58 AM 49.5 °F 45.3 °F 86% 30.17 in 10.0 mi East 1.2 mph - N/A   Clear
1:58 AM 48.2 °F 44.6 °F 87% 30.17 in 10.0 mi Calm Calm - N/A   Clear
2:58 AM 45.1 °F 42.4 °F 90% 30.17 in 10.0 mi South 2.3 mph - N/A   Clear
3:58 AM 45.5 °F 43.5 °F 93% 30.17 in 10.0 mi South 1.2 mph - N/A   Clear
4:58 AM 44.8 °F 42.8 °F 93% 30.17 in 10.0 mi SSE 2.3 mph - N/A   Clear
5:58 AM 44.4 °F 43.0 °F 95% 30.17 in 6.0 mi SSE 1.2 mph - N/A   Clear
6:13 AM 42.8 °F 42.8 °F 100% 30.16 in 1.2 mi South 2.3 mph - N/A   Clear
6:18 AM 42.8 °F 42.8 °F 100% 30.16 in 0.8 mi South 2.3 mph - N/A   Clear
6:23 AM 42.8 °F 42.8 °F 100% 30.16 in 1.0 mi South 2.3 mph - N/A   Clear
6:28 AM 42.8 °F 42.8 °F 100% 30.16 in 3.0 mi South 2.3 mph - N/A   Clear
6:33 AM 42.8 °F 42.8 °F 100% 30.16 in 1.0 mi South 2.3 mph - N/A   Clear
6:38 AM 42.8 °F 41.0 °F 93% 30.16 in 0.5 mi SSE 2.3 mph - N/A Fog Fog
6:43 AM 42.8 °F 41.0 °F 93% 30.17 in 1.0 mi SSE 1.2 mph - N/A   Clear
6:48 AM 42.8 °F 41.0 °F 93% 30.17 in 4.0 mi SSE 1.2 mph - N/A   Clear
6:58 AM 43.5 °F 41.9 °F 94% 30.19 in 8.0 mi South 2.3 mph - N/A   Clear
7:58 AM 48.9 °F 44.8 °F 86% 30.19 in 10.0 mi Calm Calm - N/A   Clear
8:09 AM 50.0 °F 46.4 °F 87% 30.18 in 10.0 mi Calm Calm - N/A   Scattered Clouds
8:14 AM 50.0 °F 46.4 °F 87% 30.18 in 10.0 mi Calm Calm - N/A   Mostly Cloudy
8:34 AM 53.6 °F 48.2 °F 82% 30.18 in 10.0 mi Calm Calm - N/A   Scattered Clouds
8:58 AM 56.8 °F 49.5 °F 76% 30.20 in 10.0 mi Variable 2.3 mph - N/A   Clear
9:28 AM 59.0 °F 51.8 °F 77% 30.19 in 10.0 mi East 5.8 mph - N/A   Mostly Cloudy
9:58 AM 59.5 °F 51.6 °F 75% 30.20 in 10.0 mi NNE 6.9 mph - N/A   Mostly Cloudy
10:03 AM 59.0 °F 51.8 °F 77% 30.19 in 10.0 mi North 8.1 mph - N/A   Scattered Clouds
10:13 AM 59.0 °F 51.8 °F 77% 30.19 in 10.0 mi North 9.2 mph - N/A   Mostly Cloudy
10:23 AM 60.8 °F 51.8 °F 72% 30.19 in 10.0 mi NNE 5.8 mph - N/A   Mostly Cloudy
10:38 AM 62.6 °F 51.8 °F 68% 30.19 in 10.0 mi NNE 10.4 mph - N/A   Scattered Clouds
10:58 AM 62.2 °F 52.2 °F 70% 30.20 in 10.0 mi NNE 8.1 mph - N/A   Scattered Clouds
11:13 AM 64.4 °F 51.8 °F 64% 30.19 in 10.0 mi NNE 10.4 mph - N/A   Mostly Cloudy
11:18 AM 64.4 °F 51.8 °F 64% 30.19 in 10.0 mi NE 6.9 mph - N/A   Scattered Clouds
11:58 AM 64.2 °F 52.2 °F 65% 30.19 in 10.0 mi North 10.4 mph - N/A   Partly Cloudy
12:58 PM 67.6 °F 52.2 °F 58% 30.19 in 10.0 mi North 10.4 mph - N/A   Clear
1:58 PM 69.8 °F 50.7 °F 51% 30.18 in 10.0 mi NNE 13.8 mph 18.4 mph N/A   Clear
2:58 PM 71.2 °F 51.1 °F 49% 30.17 in 10.0 mi NNE 9.2 mph 18.4 mph N/A   Clear
3:58 PM 72.3 °F 50.2 °F 46% 30.16 in 10.0 mi NNE 12.7 mph 20.7 mph N/A   Clear
4:58 PM 72.5 °F 47.7 °F 41% 30.15 in 10.0 mi NNE 9.2 mph - N/A   Clear
5:58 PM 71.6 °F 47.5 °F 42% 30.14 in 10.0 mi NNE 12.7 mph - N/A   Clear
6:58 PM 69.6 °F 47.5 °F 45% 30.14 in 10.0 mi NNE 6.9 mph - N/A   Clear
7:58 PM 65.3 °F 48.4 °F 54% 30.14 in 10.0 mi NNE 5.8 mph - N/A   Clear
8:58 PM 64.6 °F 49.8 °F 59% 30.15 in 10.0 mi NNE 2.3 mph - N/A   Mostly Cloudy
9:58 PM 60.3 °F 49.6 °F 68% 30.16 in 10.0 mi Calm Calm - N/A   Clear
10:58 PM 61.0 °F 47.8 °F 62% 30.16 in 10.0 mi Calm Calm - N/A   Clear
11:58 PM 53.2 °F 47.3 °F 80% 30.17 in 10.0 mi South 2.3 mph - N/A   Clear